This is the latest recevied weather packets stored in our database for station/object KI4MRC. If no packets are shown the sender has not sent any weather packets the latest 1 day(s).
| Time | Temp. | Humidity | Pressure | Rain* | Wind** | Luminosity | Snow |
|---|---|---|---|---|---|---|---|
| 1778042913 | 22.78° C | 93% | 1015.8 hPa | 0 mm | 0.89 m/s, 74° | 0 W/m² | - |
| 1778042611 | 22.78° C | 93% | 1016 hPa | 0 mm | 0.89 m/s, 71° | 0 W/m² | - |
| 1778042308 | 22.78° C | 92% | 1015.9 hPa | 0 mm | 0.89 m/s, 83° | 0 W/m² | - |
| 1778042005 | 22.78° C | 92% | 1015.9 hPa | 0 mm | 0.89 m/s, 72° | 0 W/m² | - |
| 1778041703 | 22.78° C | 92% | 1016 hPa | 0 mm | 0.89 m/s, 63° | 0 W/m² | - |
| 1778041402 | 22.78° C | 92% | 1016.2 hPa | 0 mm | 0.89 m/s, 64° | 0 W/m² | - |
| 1778041100 | 22.78° C | 91% | 1016.1 hPa | 0 mm | 0.89 m/s, 74° | 0 W/m² | - |
| 1778040797 | 22.78° C | 91% | 1016.2 hPa | 0 mm | 0.89 m/s, 82° | 0 W/m² | - |
| 1778040494 | 22.78° C | 91% | 1016.3 hPa | 0 mm | 1.34 m/s, 66° | 0 W/m² | - |
| 1778040191 | 23.33° C | 90% | 1016.2 hPa | 0 mm | 0.89 m/s, 73° | 0 W/m² | - |
| 1778039887 | 23.33° C | 90% | 1016.3 hPa | 0 mm | 0.89 m/s, 68° | 0 W/m² | - |
| 1778039585 | 23.33° C | 90% | 1016.5 hPa | 0 mm | 0.89 m/s, 76° | 0 W/m² | - |
| 1778039282 | 23.33° C | 89% | 1016.2 hPa | 0 mm | 0.89 m/s, 84° | 0 W/m² | - |
| 1778038979 | 23.33° C | 89% | 1016.2 hPa | 0 mm | 0.89 m/s, 82° | 0 W/m² | - |
| 1778038676 | 23.33° C | 89% | 1016.2 hPa | 0 mm | 0 m/s | 0 W/m² | - |
| 1778038373 | 23.33° C | 88% | 1016.2 hPa | 0 mm | 0.89 m/s, 82° | 0 W/m² | - |
| 1778038070 | 23.89° C | 88% | 1016.2 hPa | 0 mm | 0.89 m/s, 75° | 0 W/m² | - |
| 1778037767 | 23.89° C | 87% | 1016.2 hPa | 0 mm | 0.89 m/s, 49° | 0 W/m² | - |
| 1778037463 | 23.89° C | 87% | 1016.2 hPa | 0 mm | 0.89 m/s, 74° | 0 W/m² | - |
| 1778037161 | 23.89° C | 86% | 1016.3 hPa | 0 mm | 0.89 m/s, 76° | 0 W/m² | - |
| 1778036859 | 23.89° C | 86% | 1016.1 hPa | 0 mm | 1.34 m/s, 89° | 0 W/m² | - |
| 1778036556 | 23.89° C | 86% | 1016 hPa | 0 mm | 0.89 m/s, 119° | 0 W/m² | - |
| 1778036253 | 23.89° C | 86% | 1016 hPa | 0 mm | 0.89 m/s, 83° | 0 W/m² | - |
| 1778035950 | 23.89° C | 86% | 1016 hPa | 0 mm | 1.34 m/s, 73° | 0 W/m² | - |
| 1778035646 | 23.89° C | 86% | 1016 hPa | 0 mm | 0.89 m/s, 78° | 0 W/m² | - |
* Rain latest hour (hover to see other rain measurements)
** Current wind speed in m/s (hover to see current wind gust speed)